Meteo Giornale » Osservazioni meteo Italia » Genova-Sestri

ore: 17:50 - Osservazioni Meteo Genova-Sestri
Lat. 44° 25' N Lon. 8° 51' E Alt. 2 metri s.l.m.

sereno Europe/Rome

23 °C

Sereno

Temp. 24 Ore

18 °C

24 °C

Nord/NOvest

13 Km/h

Dew point 13 °C

Umidità 53 %

Visibilità  10 Km

Il sole sorge alle ore 07:42

Il sole tramonta alle ore 18:36

Data e Ora Cielo e Fenomeni T °C DP °C Um. % Pres. hPa Vis. km Vento km/h
Oggi h: 17:50 sereno Sereno 23 13 53 1013 10 N/NO 13
Oggi h: 17:20 sereno Sereno 23 13 53 1013 10 N/NO 11.1
Oggi h: 16:50 sereno Sereno 23 13 53 1013 10 N/NO 14.8
Oggi h: 16:20 sereno Sereno 24 13 50 1014 10 N/NO 14.8
Oggi h: 15:50 sereno Sereno 24 13 50 1013 10 N/NO 16.7
Oggi h: 15:20 poco_nuvoloso Poco Nuvoloso 24 13 50 1013 10 N 16.7
Oggi h: 13:50 poco_nuvoloso Poco Nuvoloso 24 14 53 1014 10 N/NE 11.1
Oggi h: 13:20 poco_nuvoloso Poco Nuvoloso 24 14 53 1014 10 N/NE 11.1
Oggi h: 12:50 poco_nuvoloso Poco Nuvoloso 23 13 53 1015 10 NE 16.7
Oggi h: 12:20 poco_nuvoloso Poco Nuvoloso 22 13 56 1015 10 NE 18.5
Oggi h: 11:50 poco_nuvoloso Poco Nuvoloso 22 13 56 1015 10 NE 22.2
Oggi h: 11:20 poco_nuvoloso Poco Nuvoloso 21 13 60 1015 10 NE 18.5
Oggi h: 10:50 poco_nuvoloso Poco Nuvoloso 21 13 60 1015 10 NE 18.5
Oggi h: 10:20 poco_nuvoloso Poco Nuvoloso 20 13 64 1015 9 NE 18.5
Oggi h: 09:50 poco_nuvoloso Poco Nuvoloso 20 13 64 1015 9 NE 16.7
Oggi h: 09:20 poco_nuvoloso Poco Nuvoloso 19 13 68 1015 9 NE 14.8
Oggi h: 08:50 poco_nuvoloso Poco Nuvoloso 19 13 68 1015 9 NE 11.1
Oggi h: 08:20 poco_nuvoloso Poco Nuvoloso 19 12 63 1015 7 NE 13
Oggi h: 07:50 poco_nuvoloso Poco Nuvoloso 18 12 67 1015 7 NE 16.7
Oggi h: 07:20 poco_nuvoloso Poco Nuvoloso 18 12 67 1015 10 E/NE 16.7
Oggi h: 06:50 poco_nuvoloso Poco Nuvoloso 18 12 67 1015 10 NE 16.7
Oggi h: 06:20 molto_nuvoloso Molto Nuvoloso 19 12 63 1015 10 NE 16.7
Oggi h: 05:50 molto_nuvoloso Molto Nuvoloso 19 12 63 1015 10 NE 13
Oggi h: 05:20 molto_nuvoloso Molto Nuvoloso 19 12 63 1015 10 NE 13
Oggi h: 04:50 molto_nuvoloso Molto Nuvoloso 19 12 63 1015 10 N/NE 13
Oggi h: 04:20 molto_nuvoloso Molto Nuvoloso 19 12 63 1015 10 NE 14.8
Oggi h: 03:50 molto_nuvoloso Molto Nuvoloso 19 12 63 1015 10 NE 14.8
Oggi h: 03:20 molto_nuvoloso Molto Nuvoloso 19 12 63 1015 10 NE 16.7
Oggi h: 02:20 molto_nuvoloso Molto Nuvoloso 19 12 63 1016 10 NE 11.1
Oggi h: 01:50 molto_nuvoloso Molto Nuvoloso 19 13 68 1016 10 NE 9.3
Oggi h: 01:20 molto_nuvoloso Molto Nuvoloso 19 13 68 1016 10 N/NE 9.3
Oggi h: 00:50 molto_nuvoloso Molto Nuvoloso 19 13 68 1016 10 N/NE 9.3
Oggi h: 00:20 molto_nuvoloso Molto Nuvoloso 19 13 68 1016 10 N/NE 11.1
Ieri h: 23:50 molto_nuvoloso Molto Nuvoloso 19 13 68 1016 10 N/NE 11.1
Ieri h: 23:20 molto_nuvoloso Molto Nuvoloso 19 13 68 1017 10 N/NE 14.8
Ieri h: 22:50 molto_nuvoloso Molto Nuvoloso 19 13 68 1017 10 NE 13
Ieri h: 22:20 molto_nuvoloso Molto Nuvoloso 19 13 68 1017 10 NE 11.1
Ieri h: 21:50 molto_nuvoloso Molto Nuvoloso 19 13 68 1017 10 NE 11.1
Ieri h: 21:20 molto_nuvoloso Molto Nuvoloso 19 13 68 1017 10 N 5.5
Ieri h: 20:50 nuvoloso Nuvoloso 20 13 64 1017 10 N 5.5
Ieri h: 20:20 nuvoloso Nuvoloso 20 13 64 1016 10 N 11.1
Ieri h: 19:50 nuvoloso Nuvoloso 20 13 64 1016 8 N 13
Ieri h: 19:20 nuvoloso Nuvoloso 20 13 64 1016 8 N 14.8